,,PA_Meas_PMT16A,,PR_Meas_QMR101_102,,RH_Meas_QMH101,,SR_Meas_QMS101,,TA_Meas_QMH101,,GenWind,,GenWind,
time,status,PA,status,PR,status,RH,status,SR,status,TA,status,DirAvg,status,SpdAvg,
2013-01-16, 00:00:04,VALID,918.983,VALID,0,VALID,93.3716,VALID,0,VALID,20.0358,VALID,357,VALID,0,
2013-01-16, 00:01:04,VALID,918.992,VALID,0,VALID,93.1658,VALID,0.107441,VALID,19.9953,VALID,357,VALID,0,
2013-01-16, 00:02:04,VALID,918.994,VALID,0,VALID,93.0743,VALID,0,VALID,19.9758,VALID,357,VALID,0,
2013-01-16, 00:03:04,VALID,919.032,VALID,0,VALID,92.9066,VALID,0.107441,VALID,19.9368,VALID,357,VALID,0,
2013-01-16, 00:04:04,VALID,919.063,VALID,0,VALID,92.5864,VALID,0,VALID,19.8978,VALID,357,VALID,0,
2013-01-16, 00:05:04,VALID,919.063,VALID,0,VALID,93.3411,VALID,0,VALID,19.9173,VALID,41,VALID,0,
2013-01-16, 00:06:04,VALID,919.075,VALID,0,VALID,93.9205,VALID,0,VALID,19.9173,VALID,42,VALID,0,
2013-01-16, 00:07:04,VALID,919.081,VALID,0,VALID,94.1721,VALID,0,VALID,19.8783,VALID,101,VALID,0,
2013-01-16, 00:08:04,VALID,919.066,VALID,0,VALID,94.416,VALID,0,VALID,19.8588,VALID,101,VALID,0,
2013-01-16, 00:09:04,VALID,919.06,VALID,0,VALID,94.599,VALID,0,VALID,19.8588,VALID,101,VALID,0,
2013-01-16, 00:10:04,VALID,919.052,VALID,0,VALID,94.7972,VALID,0,VALID,19.8783,VALID,101,VALID,0,
2013-01-16, 00:11:04,VALID,919.05,VALID,0,VALID,94.8734,VALID,0,VALID,19.8783,VALID,101,VALID,0,
2013-01-16, 00:12:04,VALID,919.06,VALID,0,VALID,94.8963,VALID,0,VALID,19.8588,VALID,101,VALID,0,
2013-01-16, 00:13:04,VALID,919.047,VALID,0,VALID,94.9725,VALID,0,VALID,19.8783,VALID,101,VALID,0,
2013-01-16, 00:14:04,VALID,919.039,VALID,0,VALID,94.9801,VALID,0,VALID,19.8783,VALID,101,VALID,0,
2013-01-16, 00:15:04,VALID,919.055,VALID,0,VALID,94.9192,VALID,0,VALID,19.7973,VALID,101,VALID,0,
2013-01-16, 00:16:04,VALID,919.048,VALID,0,VALID,95.0259,VALID,0,VALID,19.8198,VALID,101,VALID,0,
2013-01-16, 00:17:04,VALID,919.035,VALID,0,VALID,95.0792,VALID,0,VALID,19.8003,VALID,101,VALID,0,
2013-01-16, 00:18:04,VALID,919.089,VALID,0,VALID,95.2241,VALID,0,VALID,19.8003,VALID,101,VALID,0,
2013-01-16, 00:19:04,VALID,919.03,VALID,0,VALID,95.4223,VALID,0,VALID,19.8003,VALID,101,VALID,0,
2013-01-16, 00:20:04,VALID,919.023,VALID,0,VALID,95.5595,VALID,0,VALID,19.8003,VALID,101,VALID,0,
2013-01-16, 00:21:04,VALID,918.991,VALID,0,VALID,95.834,VALID,0,VALID,19.8393,VALID,101,VALID,0,
2013-01-16, 00:22:04,VALID,918.987,VALID,0,VALID,95.8797,VALID,0,VALID,19.8408,VALID,101,VALID,0,
2013-01-16, 00:23:04,VALID,918.96,VALID,0,VALID,95.9026,VALID,0,VALID,19.8408,VALID,101,VALID,0,
2013-01-16, 00:24:04,VALID,918.949,VALID,0,VALID,96.0245,VALID,0,VALID,19.8393,VALID,101,VALID,0,
2013-01-16, 00:25:04,VALID,918.938,VALID,0,VALID,96.1389,VALID,0,VALID,19.9008,VALID,101,VALID,0,
2013-01-16, 00:26:04,VALID,918.957,VALID,0,VALID,96.1923,VALID,0,VALID,19.8588,VALID,101,VALID,0,
2013-01-16, 00:27:04,VALID,918.964,VALID,0,VALID,96.2151,VALID,0.107441,VALID,19.8783,VALID,101,VALID,0,
2013-01-16, 00:28:04,VALID,918.943,VALID,0,VALID,96.2456,VALID,0,VALID,19.8783,VALID,101,VALID,0,
2013-01-16, 00:29:04,VALID,918.964,VALID,0,VALID,96.2304,VALID,0,VALID,19.8588,VALID,101,VALID,0,
2013-01-16, 00:30:04,VALID,918.974,VALID,0,VALID,96.238,VALID,0,VALID,19.8588,VALID,101,VALID,0,
2013-01-16, 00:31:04,VALID,918.962,VALID,0,VALID,96.2837,VALID,0,VALID,19.8588,VALID,101,VALID,0,
2013-01-16, 00:32:04,VALID,918.954,VALID,0,VALID,96.3219,VALID,0,VALID,19.8783,VALID,101,VALID,0,
2013-01-16, 00:33:04,VALID,918.947,VALID,0,VALID,96.3829,VALID,0,VALID,19.8978,VALID,101,VALID,0,
2013-01-16, 00:34:04,VALID,918.913,VALID,0,VALID,96.4362,VALID,0,VALID,19.9173,VALID,101,VALID,0,
2013-01-16, 00:35:04,VALID,918.942,VALID,0,VALID,96.4515,VALID,0,VALID,19.9173,VALID,101,VALID,0,
2013-01-16, 00:36:04,VALID,918.934,VALID,0,VALID,96.4591,VALID,0,VALID,19.9173,VALID,101,VALID,0,
2013-01-16, 00:37:04,VALID,918.942,VALID,0,VALID,96.4819,VALID,0,VALID,19.9368,VALID,101,VALID,0,
2013-01-16, 00:38:04,VALID,918.921,VALID,0,VALID,96.4896,VALID,0.107441,VALID,19.9368,VALID,101,VALID,0,
2013-01-16, 00:39:04,VALID,918.958,VALID,0,VALID,96.4972,VALID,0.107441,VALID,19.9368,VALID,101,VALID,0,
2013-01-16, 00:40:04,VALID,918.918,VALID,0,VALID,96.4896,VALID,0,VALID,19.9368,VALID,101,VALID,0,
2013-01-16, 00:41:04,VALID,918.906,VALID,0,VALID,96.4896,VALID,0.107441,VALID,19.9368,VALID,101,VALID,0,
2013-01-16, 00:42:04,VALID,918.919,VALID,0,VALID,96.4896,VALID,0,VALID,19.8978,VALID,101,VALID,0,
2013-01-16, 00:43:04,VALID,918.915,VALID,0,VALID,96.4896,VALID,0,VALID,19.9578,VALID,101,VALID,0,
2013-01-16, 00:44:04,VALID,918.892,VALID,0,VALID,96.4743,VALID,0,VALID,19.9173,VALID,101,VALID,0,
2013-01-16, 00:45:04,VALID,918.885,VALID,0,VALID,96.4667,VALID,0.107441,VALID,19.9173,VALID,101,VALID,0,
2013-01-16, 00:46:04,VALID,918.907,VALID,0,VALID,96.4896,VALID,0,VALID,19.9173,VALID,101,VALID,0,
2013-01-16, 00:47:04,VALID,918.872,VALID,0,VALID,96.4896,VALID,0,VALID,19.9578,VALID,101,VALID,0,
2013-01-16, 00:48:04,VALID,918.841,VALID,0,VALID,96.4819,VALID,0,VALID,19.9368,VALID,101,VALID,0,
2013-01-16, 00:49:04,VALID,918.849,VALID,0,VALID,96.4743,VALID,0,VALID,19.9368,VALID,101,VALID,0,
2013-01-16, 00:50:04,VALID,918.828,VALID,0,VALID,96.4362,VALID,0,VALID,19.8978,VALID,101,VALID,0,
2013-01-16, 00:51:04,VALID,918.844,VALID,0,VALID,96.3905,VALID,0,VALID,19.8798,VALID,101,VALID,0,
2013-01-16, 00:52:04,VALID,918.811,VALID,0,VALID,96.3829,VALID,0,VALID,19.8588,VALID,101,VALID,0,
2013-01-16, 00:53:04,VALID,918.806,VALID,0,VALID,96.3981,VALID,0,VALID,19.8588,VALID,101,VALID,0,
2013-01-16, 00:54:04,VALID,918.795,VALID,0,VALID,96.4133,VALID,0,VALID,19.8783,VALID,101,VALID,0,
2013-01-16, 00:55:04,VALID,918.797,VALID,0,VALID,96.4591,VALID,0,VALID,19.8783,VALID,101,VALID,0,
2013-01-16, 00:56:04,VALID,918.771,VALID,0,VALID,96.4515,VALID,0,VALID,19.8183,VALID,101,VALID,0,
2013-01-16, 00:57:04,VALID,918.795,VALID,0,VALID,96.4133,VALID,0.107441,VALID,19.8213,VALID,101,VALID,0,
2013-01-16, 00:58:04,VALID,918.763,VALID,0,VALID,96.4057,VALID,0,VALID,19.8003,VALID,101,VALID,0,
2013-01-16, 00:59:04,VALID,918.775,VALID,0,VALID,96.4057,VALID,0,VALID,19.8018,VALID,101,VALID,0,
2013-01-16, 01:00:04,VALID,918.75,VALID,0,VALID,96.3905,VALID,0,VALID,19.7823,VALID,101,VALID,0,
2013-01-16, 01:01:04,VALID,918.727,VALID,0,VALID,96.4438,VALID,0,VALID,19.8213,VALID,101,VALID,0,
2013-01-16, 01:02:04,VALID,918.66,VALID,0,VALID,96.5353,VALID,0,VALID,19.8393,VALID,101,VALID,0,
2013-01-16, 01:03:04,VALID,918.628,VALID,0,VALID,96.5201,VALID,0,VALID,19.8408,VALID,84,VALID,0,
2013-01-16, 01:04:04,VALID,918.586,VALID,0,VALID,96.5429,VALID,0,VALID,19.8393,VALID,84,VALID,0,
2013-01-16, 01:05:04,VALID,918.527,VALID,0,VALID,96.5582,VALID,0,VALID,19.8393,VALID,84,VALID,0,
2013-01-16, 01:06:04,VALID,918.494,VALID,0,VALID,96.5506,VALID,0,VALID,19.8393,VALID,84,VALID,0,
2013-01-16, 01:07:04,VALID,918.469,VALID,0,VALID,96.5277,VALID,0,VALID,19.8198,VALID,84,VALID,0,
2013-01-16, 01:08:04,VALID,918.443,VALID,0,VALID,96.4515,VALID,0,VALID,19.8018,VALID,84,VALID,0,
2013-01-16, 01:09:04,VALID,918.42,VALID,0,VALID,96.4515,VALID,0,VALID,19.7823,VALID,84,VALID,0,
2013-01-16, 01:10:04,VALID,918.402,VALID,0,VALID,96.4362,VALID,0,VALID,19.7418,VALID,84,VALID,0,
2013-01-16, 01:11:04,VALID,918.406,VALID,0,VALID,96.4819,VALID,0,VALID,19.7628,VALID,84,VALID,0,
2013-01-16, 01:12:04,VALID,918.425,VALID,0,VALID,96.4743,VALID,0,VALID,19.7628,VALID,84,VALID,0,
2013-01-16, 01:13:04,VALID,918.416,VALID,0,VALID,96.5124,VALID,0,VALID,19.7223,VALID,114,VALID,0,
2013-01-16, 01:14:04,VALID,918.455,VALID,0,VALID,96.4819,VALID,0,VALID,19.7433,VALID,121,VALID,0,
2013-01-16, 01:15:04,VALID,918.445,VALID,0,VALID,96.4896,VALID,0,VALID,19.7418,VALID,121,VALID,0,
2013-01-16, 01:16:04,VALID,918.466,VALID,0,VALID,96.4743,VALID,0,VALID,19.7643,VALID,121,VALID,0,
2013-01-16, 01:17:04,VALID,918.469,VALID,0,VALID,96.4667,VALID,0,VALID,19.7223,VALID,152,VALID,0,
2013-01-16, 01:18:04,VALID,918.47,VALID,0,VALID,96.4667,VALID,0,VALID,19.7418,VALID,152,VALID,0,
2013-01-16, 01:19:04,VALID,918.482,VALID,0,VALID,96.4438,VALID,0,VALID,19.7223,VALID,152,VALID,0,
2013-01-16, 01:20:04,VALID,918.508,VALID,0,VALID,96.4591,VALID,0,VALID,19.7433,VALID,152,VALID,0,
2013-01-16, 01:21:05,VALID,918.492,VALID,0,VALID,96.4591,VALID,0,VALID,19.7238,VALID,152,VALID,0,
2013-01-16, 01:22:05,VALID,918.479,VALID,0,VALID,96.4591,VALID,0,VALID,19.7238,VALID,152,VALID,0,
2013-01-16, 01:23:05,VALID,918.48,VALID,0,VALID,96.4438,VALID,0,VALID,19.7238,VALID,152,VALID,0,
2013-01-16, 01:24:05,VALID,918.507,VALID,0,VALID,96.4515,VALID,0,VALID,19.7043,VALID,152,VALID,0,
2013-01-16, 01:25:05,VALID,918.499,VALID,0,VALID,96.4667,VALID,0,VALID,19.7043,VALID,152,VALID,0,
2013-01-16, 01:26:05,VALID,918.502,VALID,0,VALID,96.4819,VALID,0,VALID,19.6833,VALID,152,VALID,0,
2013-01-16, 01:27:05,VALID,918.498,VALID,0,VALID,96.4896,VALID,0,VALID,19.7043,VALID,152,VALID,0,
2013-01-16, 01:28:05,VALID,918.475,VALID,0,VALID,96.4819,VALID,0,VALID,19.6848,VALID,152,VALID,0,
2013-01-16, 01:29:05,VALID,918.455,VALID,0,VALID,96.4972,VALID,0,VALID,19.7058,VALID,152,VALID,0,
2013-01-16, 01:30:05,VALID,918.438,VALID,0,VALID,96.5124,VALID,0,VALID,19.6653,VALID,152,VALID,0,
2013-01-16, 01:31:05,VALID,918.409,VALID,0,VALID,96.5124,VALID,0,VALID,19.6638,VALID,152,VALID,0,
2013-01-16, 01:32:05,VALID,918.405,VALID,0,VALID,96.5048,VALID,0,VALID,19.6443,VALID,152,VALID,0,
2013-01-16, 01:33:05,VALID,918.401,VALID,0,VALID,96.5048,VALID,0,VALID,19.6653,VALID,152,VALID,0,
2013-01-16, 01:34:05,VALID,918.354,VALID,0,VALID,96.5124,VALID,0,VALID,19.6458,VALID,152,VALID,0,
2013-01-16, 01:35:05,VALID,918.372,VALID,0,VALID,96.5277,VALID,0,VALID,19.6458,VALID,152,VALID,0,
2013-01-16, 01:36:05,VALID,918.334,VALID,0,VALID,96.5658,VALID,0,VALID,19.6248,VALID,152,VALID,0,
2013-01-16, 01:37:05,VALID,918.32,VALID,0,VALID,96.5429,VALID,0,VALID,19.6638,VALID,152,VALID,0,
2013-01-16, 01:38:05,VALID,918.332,VALID,0,VALID,96.5963,VALID,0,VALID,19.6638,VALID,152,VALID,0,
2013-01-16, 01:39:05,VALID,918.306,VALID,0,VALID,96.5811,VALID,0,VALID,19.6833,VALID,152,VALID,0,
2013-01-16, 01:40:05,VALID,918.32,VALID,0,VALID,96.5887,VALID,0,VALID,19.6443,VALID,152,VALID,0,
2013-01-16, 01:41:05,VALID,918.321,VALID,0,VALID,96.5963,VALID,0,VALID,19.6233,VALID,152,VALID,0,
2013-01-16, 01:42:05,VALID,918.332,VALID,0,VALID,96.6039,VALID,0,VALID,19.6848,VALID,152,VALID,0,
2013-01-16, 01:43:05,VALID,918.331,VALID,0,VALID,96.5963,VALID,0,VALID,19.6638,VALID,152,VALID,0,
2013-01-16, 01:44:05,VALID,918.343,VALID,0,VALID,96.5963,VALID,0,VALID,19.6848,VALID,152,VALID,0,
2013-01-16, 01:45:05,VALID,918.317,VALID,0,VALID,96.5734,VALID,0,VALID,19.6443,VALID,152,VALID,0,
2013-01-16, 01:46:05,VALID,918.265,VALID,0,VALID,96.5429,VALID,0,VALID,19.6443,VALID,152,VALID,0,
2013-01-16, 01:47:05,VALID,918.253,VALID,0,VALID,96.5353,VALID,0,VALID,19.6848,VALID,152,VALID,0,
2013-01-16, 01:48:05,VALID,918.274,VALID,0,VALID,96.4819,VALID,0,VALID,19.6848,VALID,152,VALID,0,
2013-01-16, 01:49:05,VALID,918.251,VALID,0,VALID,96.4133,VALID,0,VALID,19.6653,VALID,152,VALID,0,
2013-01-16, 01:50:05,VALID,918.251,VALID,0,VALID,96.3066,VALID,0,VALID,19.6638,VALID,152,VALID,0,
2013-01-16, 01:51:05,VALID,918.217,VALID,0,VALID,96.177,VALID,0,VALID,19.6653,VALID,152,VALID,0,
2013-01-16, 01:52:05,VALID,918.196,VALID,0,VALID,96.0932,VALID,0,VALID,19.6653,VALID,152,VALID,0,
2013-01-16, 01:53:05,VALID,918.197,VALID,0,VALID,96.0855,VALID,0,VALID,19.6443,VALID,152,VALID,0,
2013-01-16, 01:54:05,VALID,918.188,VALID,0,VALID,96.0779,VALID,0,VALID,19.6443,VALID,152,VALID,0,
2013-01-16, 01:55:05,VALID,918.183,VALID,0,VALID,96.1008,VALID,0,VALID,19.6638,VALID,152,VALID,0,
2013-01-16, 01:56:05,VALID,918.203,VALID,0,VALID,96.0932,VALID,0,VALID,19.7058,VALID,151,VALID,0,
2013-01-16, 01:57:05,VALID,918.177,VALID,0,VALID,96.0398,VALID,0,VALID,19.6848,VALID,148,VALID,0,
2013-01-16, 01:58:05,VALID,918.163,VALID,0,VALID,95.9407,VALID,0,VALID,19.6653,VALID,133,VALID,0,
2013-01-16, 01:59:05,VALID,918.165,VALID,0,VALID,95.9026,VALID,0.107441,VALID,19.6248,VALID,133,VALID,0,
2013-01-16, 02:00:05,VALID,918.178,VALID,0,VALID,95.8873,VALID,0,VALID,19.6263,VALID,133,VALID,0,
2013-01-16, 02:01:05,VALID,918.183,VALID,0,VALID,95.8797,VALID,0,VALID,19.6053,VALID,133,VALID,0,
2013-01-16, 02:02:05,VALID,918.184,VALID,0,VALID,95.834,VALID,0,VALID,19.6263,VALID,133,VALID,0,
2013-01-16, 02:03:05,VALID,918.191,VALID,0,VALID,95.7958,VALID,0,VALID,19.5873,VALID,133,VALID,0,
2013-01-16, 02:04:05,VALID,918.197,VALID,0,VALID,95.7272,VALID,0,VALID,19.5873,VALID,133,VALID,0,
2013-01-16, 02:05:05,VALID,918.185,VALID,0,VALID,95.6662,VALID,0,VALID,19.5678,VALID,133,VALID,0,
2013-01-16, 02:06:05,VALID,918.174,VALID,0,VALID,95.6739,VALID,0,VALID,19.5483,VALID,135,VALID,0,
2013-01-16, 02:07:05,VALID,918.15,VALID,0,VALID,95.7044,VALID,0,VALID,19.5288,VALID,132,VALID,0,
2013-01-16, 02:08:05,VALID,918.165,VALID,0,VALID,95.7577,VALID,0,VALID,19.5078,VALID,132,VALID,0,
2013-01-16, 02:09:05,VALID,918.158,VALID,0,VALID,95.8111,VALID,0,VALID,19.5093,VALID,138,VALID,0,
2013-01-16, 02:10:05,VALID,918.126,VALID,0,VALID,95.8721,VALID,0,VALID,19.4688,VALID,127,VALID,0,
2013-01-16, 02:11:05,VALID,918.142,VALID,0,VALID,95.9483,VALID,0,VALID,19.4283,VALID,130,VALID,0,
2013-01-16, 02:12:05,VALID,918.089,VALID,0,VALID,96.0398,VALID,0,VALID,19.4508,VALID,130,VALID,0,
2013-01-16, 02:13:05,VALID,918.079,VALID,0,VALID,96.1541,VALID,0,VALID,19.4508,VALID,131,VALID,0,
2013-01-16, 02:14:05,VALID,918.08,VALID,0,VALID,96.2228,VALID,0,VALID,19.4298,VALID,132,VALID,0,
2013-01-16, 02:15:05,VALID,918.081,VALID,0,VALID,96.2533,VALID,0,VALID,19.4523,VALID,128,VALID,0,
2013-01-16, 02:16:05,VALID,918.081,VALID,0,VALID,96.3219,VALID,0,VALID,19.3908,VALID,120,VALID,0,
2013-01-16, 02:17:05,VALID,918.081,VALID,0,VALID,96.3447,VALID,0,VALID,19.4118,VALID,119,VALID,0,
2013-01-16, 02:18:05,VALID,918.101,VALID,0,VALID,96.3752,VALID,0,VALID,19.3713,VALID,114,VALID,0,
2013-01-16, 02:19:05,VALID,918.07,VALID,0,VALID,96.421,VALID,0,VALID,19.3518,VALID,125,VALID,0,
2013-01-16, 02:20:05,VALID,918.075,VALID,0,VALID,96.4591,VALID,0,VALID,19.3923,VALID,115,VALID,0,
2013-01-16, 02:21:05,VALID,918.115,VALID,0,VALID,96.5124,VALID,0,VALID,19.3728,VALID,120,VALID,0,
2013-01-16, 02:22:05,VALID,918.102,VALID,0,VALID,96.5506,VALID,0,VALID,19.3742,VALID,103,VALID,0,
2013-01-16, 02:23:05,VALID,918.094,VALID,0,VALID,96.5887,VALID,0,VALID,19.3923,VALID,123,VALID,0,
2013-01-16, 02:24:05,VALID,918.08,VALID,0,VALID,96.6192,VALID,0,VALID,19.3923,VALID,119,VALID,0,
2013-01-16, 02:25:05,VALID,918.056,VALID,0,VALID,96.642,VALID,0,VALID,19.3518,VALID,127,VALID,0,
2013-01-16, 02:26:05,VALID,918.074,VALID,0,VALID,96.6649,VALID,0,VALID,19.3728,VALID,135,VALID,0,
2013-01-16, 02:27:05,VALID,918.068,VALID,0,VALID,96.6954,VALID,0,VALID,19.3728,VALID,126,VALID,0,
2013-01-16, 02:28:05,VALID,918.055,VALID,0,VALID,96.7183,VALID,0,VALID,19.3533,VALID,124,VALID,0,
2013-01-16, 02:29:05,VALID,918.059,VALID,0,VALID,96.7335,VALID,0,VALID,19.3937,VALID,118,VALID,0,
2013-01-16, 02:30:05,VALID,918.088,VALID,0,VALID,96.764,VALID,0,VALID,19.3742,VALID,115,VALID,0,
2013-01-16, 02:31:05,VALID,918.068,VALID,0,VALID,96.7716,VALID,0,VALID,19.3728,VALID,126,VALID,0,
2013-01-16, 02:32:05,VALID,918.054,VALID,0,VALID,96.7945,VALID,0,VALID,19.3533,VALID,116,VALID,0,
2013-01-16, 02:33:05,VALID,918.034,VALID,0,VALID,96.7793,VALID,0,VALID,19.3533,VALID,107,VALID,0,
2013-01-16, 02:34:05,VALID,918.014,VALID,0,VALID,96.7716,VALID,0,VALID,19.3757,VALID,122,VALID,0,
2013-01-16, 02:35:05,VALID,918.029,VALID,0,VALID,96.7869,VALID,0,VALID,19.3952,VALID,110,VALID,0,
2013-01-16, 02:36:05,VALID,918.004,VALID,0,VALID,96.8174,VALID,0,VALID,19.2918,VALID,133,VALID,0,
2013-01-16, 02:37:05,VALID,918,VALID,0,VALID,96.7869,VALID,0,VALID,19.3547,VALID,139,VALID,0,
2013-01-16, 02:38:05,VALID,917.966,VALID,0,VALID,96.8174,VALID,0,VALID,19.3128,VALID,123,VALID,0,
2013-01-16, 02:39:05,VALID,917.981,VALID,0,VALID,96.8021,VALID,0,VALID,19.3338,VALID,135,VALID,0,
2013-01-16, 02:40:05,VALID,917.962,VALID,0,VALID,96.825,VALID,0,VALID,19.3533,VALID,137,VALID,0,
2013-01-16, 02:41:05,VALID,917.944,VALID,0,VALID,96.825,VALID,0,VALID,19.3937,VALID,116,VALID,0,
2013-01-16, 02:42:05,VALID,917.959,VALID,0,VALID,96.825,VALID,0,VALID,19.3728,VALID,136,VALID,0,
2013-01-16, 02:43:05,VALID,917.976,VALID,0,VALID,96.8174,VALID,0,VALID,19.3728,VALID,137,VALID,0,
2013-01-16, 02:44:05,VALID,917.96,VALID,0,VALID,96.7945,VALID,0,VALID,19.3728,VALID,127,VALID,0,
2013-01-16, 02:45:05,VALID,917.943,VALID,0,VALID,96.764,VALID,0,VALID,19.3728,VALID,125,VALID,0,
2013-01-16, 02:46:05,VALID,917.938,VALID,0,VALID,96.7488,VALID,0,VALID,19.3533,VALID,128,VALID,0,
2013-01-16, 02:47:05,VALID,917.941,VALID,0,VALID,96.7411,VALID,0,VALID,19.3533,VALID,132,VALID,0,
2013-01-16, 02:48:05,VALID,917.918,VALID,0,VALID,96.6802,VALID,0,VALID,19.3937,VALID,124,VALID,0,
2013-01-16, 02:49:05,VALID,917.899,VALID,0,VALID,96.6573,VALID,0,VALID,19.3323,VALID,133,VALID,0,
2013-01-16, 02:50:05,VALID,917.886,VALID,0,VALID,96.642,VALID,0,VALID,19.3338,VALID,131,VALID,0,
2013-01-16, 02:51:05,VALID,917.84,VALID,0,VALID,96.5582,VALID,0,VALID,19.3757,VALID,124,VALID,0,
2013-01-16, 02:52:05,VALID,917.823,VALID,0,VALID,96.5506,VALID,0,VALID,19.3338,VALID,106,VALID,0,
2013-01-16, 02:53:05,VALID,917.798,VALID,0,VALID,96.5201,VALID,0,VALID,19.3338,VALID,124,VALID,0,
2013-01-16, 02:54:05,VALID,917.805,VALID,0,VALID,96.5277,VALID,0,VALID,19.3143,VALID,161,VALID,0,
2013-01-16, 02:55:05,VALID,917.796,VALID,0,VALID,96.4819,VALID,0,VALID,19.3143,VALID,128,VALID,0,
2013-01-16, 02:56:05,VALID,917.803,VALID,0,VALID,96.4438,VALID,0,VALID,19.3143,VALID,135,VALID,0,
2013-01-16, 02:57:05,VALID,917.803,VALID,0,VALID,96.3981,VALID,0,VALID,19.3562,VALID,118,VALID,0,
2013-01-16, 02:58:05,VALID,917.818,VALID,0,VALID,96.3295,VALID,0,VALID,19.2738,VALID,120,VALID,0,
2013-01-16, 02:59:05,VALID,917.817,VALID,0,VALID,96.177,VALID,0,VALID,19.2948,VALID,143,VALID,0,
2013-01-16, 03:00:05,VALID,917.822,VALID,0,VALID,96.177,VALID,0,VALID,19.2948,VALID,175,VALID,0,
2013-01-16, 03:01:05,VALID,917.833,VALID,0,VALID,96.177,VALID,0,VALID,19.3143,VALID,169,VALID,0,
2013-01-16, 03:02:05,VALID,917.864,VALID,0,VALID,96.1389,VALID,0,VALID,19.2948,VALID,156,VALID,0,
2013-01-16, 03:03:05,VALID,917.831,VALID,0,VALID,96.1465,VALID,0,VALID,19.3143,VALID,180,VALID,0,
2013-01-16, 03:04:05,VALID,917.844,VALID,0,VALID,96.1389,VALID,0,VALID,19.3338,VALID,175,VALID,0,
2013-01-16, 03:05:05,VALID,917.8,VALID,0,VALID,96.0703,VALID,0,VALID,19.3338,VALID,176,VALID,0,
2013-01-16, 03:06:05,VALID,917.791,VALID,0,VALID,96.0779,VALID,0,VALID,19.3728,VALID,171,VALID,0,
2013-01-16, 03:07:05,VALID,917.797,VALID,0,VALID,96.0169,VALID,0,VALID,19.3338,VALID,171,VALID,0,
2013-01-16, 03:08:05,VALID,917.775,VALID,0,VALID,95.895,VALID,0,VALID,19.3533,VALID,171,VALID,0,
2013-01-16, 03:09:05,VALID,917.796,VALID,0,VALID,95.8492,VALID,0,VALID,19.3338,VALID,172,VALID,0,
2013-01-16, 03:10:05,VALID,917.775,VALID,0,VALID,95.7425,VALID,0,VALID,19.3338,VALID,172,VALID,0,
2013-01-16, 03:11:05,VALID,917.797,VALID,0,VALID,95.6739,VALID,0,VALID,19.3143,VALID,172,VALID,0,
2013-01-16, 03:12:05,VALID,917.824,VALID,0,VALID,95.5443,VALID,0,VALID,19.2948,VALID,172,VALID,0,
2013-01-16, 03:13:05,VALID,917.801,VALID,0,VALID,95.4909,VALID,0,VALID,19.2962,VALID,173,VALID,0,
2013-01-16, 03:14:05,VALID,917.827,VALID,0,VALID,95.4147,VALID,0,VALID,19.2948,VALID,171,VALID,0,
2013-01-16, 03:15:05,VALID,917.836,VALID,0,VALID,95.2851,VALID,0,VALID,19.2962,VALID,171,VALID,0,
2013-01-16, 03:16:05,VALID,917.839,VALID,0,VALID,95.1402,VALID,0,VALID,19.2572,VALID,126,VALID,0,
2013-01-16, 03:17:05,VALID,917.836,VALID,0,VALID,95.0488,VALID,0,VALID,19.2572,VALID,122,VALID,0,
2013-01-16, 03:18:05,VALID,917.872,VALID,0,VALID,94.9878,VALID,0,VALID,19.2363,VALID,122,VALID,0,
2013-01-16, 03:19:05,VALID,917.839,VALID,0,VALID,94.8505,VALID,0,VALID,19.2168,VALID,125,VALID,0,
2013-01-16, 03:20:05,VALID,917.823,VALID,0,VALID,94.7286,VALID,0,VALID,19.2182,VALID,122,VALID,0,
2013-01-16, 03:21:05,VALID,917.841,VALID,0,VALID,94.6142,VALID,0,VALID,19.1973,VALID,122,VALID,0,
2013-01-16, 03:22:05,VALID,917.85,VALID,0,VALID,94.6371,VALID,0,VALID,19.1973,VALID,122,VALID,0,
2013-01-16, 03:23:05,VALID,917.833,VALID,0,VALID,94.5151,VALID,0,VALID,19.2168,VALID,127,VALID,0,
2013-01-16, 03:24:05,VALID,917.834,VALID,0,VALID,94.4084,VALID,0,VALID,19.2363,VALID,131,VALID,0,
2013-01-16, 03:25:05,VALID,917.826,VALID,0,VALID,94.2864,VALID,0,VALID,19.2767,VALID,132,VALID,0,
2013-01-16, 03:26:05,VALID,917.821,VALID,0,VALID,94.1187,VALID,0,VALID,19.2962,VALID,126,VALID,0,
2013-01-16, 03:27:05,VALID,917.845,VALID,0,VALID,94.0348,VALID,0,VALID,19.2753,VALID,134,VALID,0,
2013-01-16, 03:28:05,VALID,917.822,VALID,0,VALID,93.9357,VALID,0,VALID,19.2948,VALID,135,VALID,0,
2013-01-16, 03:29:05,VALID,917.828,VALID,0,VALID,93.8976,VALID,0,VALID,19.2767,VALID,123,VALID,0,
2013-01-16, 03:30:05,VALID,917.831,VALID,0,VALID,93.9586,VALID,0,VALID,19.2753,VALID,129,VALID,0,
2013-01-16, 03:31:05,VALID,917.824,VALID,0,VALID,93.951,VALID,0,VALID,19.2753,VALID,121,VALID,0,
2013-01-16, 03:32:05,VALID,917.789,VALID,0,VALID,93.9129,VALID,0,VALID,19.2753,VALID,146,VALID,0,
2013-01-16, 03:33:05,VALID,917.806,VALID,0,VALID,93.8671,VALID,0,VALID,19.2363,VALID,119,VALID,0,
2013-01-16, 03:34:05,VALID,917.833,VALID,0,VALID,93.89,VALID,0,VALID,19.2753,VALID,126,VALID,0,
2013-01-16, 03:35:05,VALID,917.819,VALID,0,VALID,93.9052,VALID,0,VALID,19.2767,VALID,127,VALID,0,
2013-01-16, 03:36:05,VALID,917.812,VALID,0,VALID,93.8595,VALID,0,VALID,19.2572,VALID,124,VALID,0,
2013-01-16, 03:37:05,VALID,917.823,VALID,0,VALID,93.8976,VALID,0,VALID,19.2363,VALID,139,VALID,0,
2013-01-16, 03:38:05,VALID,917.835,VALID,0,VALID,93.9052,VALID,0,VALID,19.2168,VALID,141,VALID,0,
2013-01-16, 03:39:05,VALID,917.85,VALID,0,VALID,93.9281,VALID,0,VALID,19.2377,VALID,148,VALID,0,
2013-01-16, 03:40:05,VALID,917.844,VALID,0,VALID,93.951,VALID,0,VALID,19.2363,VALID,127,VALID,0,
2013-01-16, 03:41:05,VALID,917.867,VALID,0,VALID,93.951,VALID,0,VALID,19.2168,VALID,131,VALID,0,
2013-01-16, 03:42:05,VALID,917.875,VALID,0,VALID,93.89,VALID,0,VALID,19.2377,VALID,134,VALID,0,
2013-01-16, 03:43:05,VALID,917.862,VALID,0,VALID,93.8443,VALID,0,VALID,19.2363,VALID,134,VALID,0,
2013-01-16, 03:44:05,VALID,917.879,VALID,0,VALID,93.7756,VALID,0,VALID,19.1973,VALID,128,VALID,0,
2013-01-16, 03:45:05,VALID,917.878,VALID,0,VALID,93.8061,VALID,0,VALID,19.2767,VALID,155,VALID,0,
2013-01-16, 03:46:05,VALID,917.869,VALID,0,VALID,93.9281,VALID,0,VALID,19.2363,VALID,129,VALID,0,
2013-01-16, 03:47:05,VALID,917.875,VALID,0,VALID,94.0043,VALID,0,VALID,19.2753,VALID,155,VALID,0,
2013-01-16, 03:48:05,VALID,917.879,VALID,0,VALID,94.1568,VALID,0,VALID,19.2753,VALID,167,VALID,0,
2013-01-16, 03:49:05,VALID,917.888,VALID,0,VALID,94.2559,VALID,0,VALID,19.2948,VALID,171,VALID,0,
2013-01-16, 03:50:05,VALID,917.901,VALID,0,VALID,94.4236,VALID,0,VALID,19.2753,VALID,172,VALID,0,
2013-01-16, 03:51:05,VALID,917.898,VALID,0,VALID,94.4922,VALID,0,VALID,19.2558,VALID,162,VALID,0,
2013-01-16, 03:52:05,VALID,917.94,VALID,0,VALID,94.5913,VALID,0,VALID,19.2767,VALID,163,VALID,0,
2013-01-16, 03:53:05,VALID,917.933,VALID,0,VALID,94.7057,VALID,0,VALID,19.2363,VALID,163,VALID,0,
2013-01-16, 03:54:05,VALID,917.937,VALID,0,VALID,94.7591,VALID,0,VALID,19.1973,VALID,163,VALID,0,
2013-01-16, 03:55:05,VALID,917.95,VALID,0,VALID,94.7972,VALID,0,VALID,19.1973,VALID,163,VALID,0,
2013-01-16, 03:56:05,VALID,917.965,VALID,0,VALID,94.9496,VALID,0,VALID,19.1958,VALID,163,VALID,0,
2013-01-16, 03:57:05,VALID,917.957,VALID,0,VALID,95.0259,VALID,0,VALID,19.2168,VALID,163,VALID,0,
2013-01-16, 03:58:05,VALID,917.988,VALID,0,VALID,95.1174,VALID,0,VALID,19.1973,VALID,164,VALID,0,
2013-01-16, 03:59:05,VALID,917.969,VALID,0,VALID,94.9954,VALID,0,VALID,19.2348,VALID,150,VALID,0,